[[{"header":{"parameterUnit":"m.s-1","parameterCategory":1,"la1":30.2991,"la2":30.254,"lo1":-89.0895,"lo2":-89.0444,"dx":0.0017,"dy":0.0017,"nx":28,"ny":28,"refTime":"2022-12-15T09:00:00:Z","depth":0,"parameterNumber":2,"parameterNumberName":"U-component_of_WINDS"},"data":[0,0,0,0,0,0,0,0,0,0,0,0,0,0,0,0,0,0,0,0,0,0,0,0,0,0,0,0,0,0,0,0,0,0,0,0,0,0,0,0,0,0,0,0,0,0,0,0,0,0,0,0,0,0,0,0,0,0,3.2145,3.2146,0,3.2193,3.2194,3.2194,3.217,3.2169,3.2168,3.2167,3.2216,3.2219,3.2221,0,0,0,0,0,0,0,0,0,0,0,0,0,3.2036,3.2038,3.2145,3.2146,3.2147,3.2193,3.2194,3.2194,3.2171,3.2169,3.2167,3.2166,3.2215,3.2218,3.2221,0,0,0,0,0,0,0,0,0,0,0,0,0,3.2083,3.2039,3.2145,3.214,3.214,3.2193,3.2194,3.2194,3.2171,3.2169,3.2167,3.2165,3.2214,3.2218,3.2222,3.2282,0,0,3.2233,3.2235,0,0,0,0,0,0,0,0,3.2081,3.2087,3.214,3.2141,3.2141,3.2174,3.2173,3.2224,3.2171,3.2159,3.2167,3.2164,3.2204,3.2208,3.2221,3.2284,3.2287,3.2233,3.2236,3.2237,3.2238,0,0,0,0,0,0,0,3.2077,3.2085,3.2164,3.2141,3.2142,3.2136,3.2141,3.2183,3.2191,3.216,3.2159,3.2165,3.2203,3.2218,3.2222,3.2287,3.2233,3.2237,3.2239,3.224,3.2405,3.2407,0,0,0,0,0,0,3.2074,3.2083,3.2163,3.2166,3.2106,3.214,3.2145,3.2165,3.2191,3.2193,3.2166,3.2163,3.2212,3.2218,3.2224,3.2298,3.2237,3.2241,3.2243,3.2403,3.2405,3.2408,0,0,0,0,0,0,3.2072,3.2082,3.2161,3.2124,3.2133,3.2144,3.2166,3.2167,3.2181,3.2195,3.2197,3.2179,3.2211,3.2219,3.2268,3.2299,3.2242,3.2246,3.24,3.2404,3.2406,3.2445,0,0,0,0,0,0,3.2069,3.2081,3.2103,3.2124,3.2136,3.2204,3.2168,3.2169,3.2188,3.2184,3.2208,3.221,3.221,3.2263,3.2272,3.2303,3.2249,3.2397,3.2402,3.2405,3.2441,3.2449,3.2456,0,0,0,0,0,3.2065,3.2112,3.2105,3.2114,3.2164,3.2206,3.2212,3.2211,3.219,3.2213,3.2223,3.2209,3.2294,3.2268,3.2278,3.2311,3.2396,3.2401,3.2405,3.2438,3.2448,3.2456,0,0,0,0,0,0,3.2094,3.2115,3.2107,3.2162,3.2182,3.2202,3.2231,3.2221,3.2248,3.2244,3.2242,3.2248,3.23,3.231,3.2281,3.2372,3.2342,3.2349,3.2363,3.2373,3.238,3.2377,3.2252,0,0,0,0,0,3.2107,3.2139,3.2155,3.2202,3.2213,3.222,3.2238,3.2236,3.2257,3.2266,3.2279,3.23,3.2332,3.2353,3.2383,3.2443,3.2448,3.247,3.2478,3.2484,3.249,3.2525,3.2535,3.2423,3.2423,3.2423,0,0,3.2133,3.2149,3.2169,3.2208,3.2224,3.2258,3.2227,3.2264,3.229,3.2271,3.2319,3.233,3.2354,3.241,3.2435,3.242,3.2523,3.249,3.2495,3.2498,3.2531,3.2541,3.2551,3.2427,3.2426,3.2426,0,0,3.22,3.2214,3.2255,3.2272,3.2296,3.2301,3.2311,3.2333,3.2339,3.2387,3.2375,3.2405,3.2459,3.2478,3.2494,3.2569,3.2559,3.2579,3.2619,3.2652,3.2661,3.2669,3.2697,3.2707,3.2585,3.2585,3.2586,0,3.223,3.228,3.2278,3.2316,3.2335,3.232,3.2363,3.2379,3.2412,3.2426,3.2409,3.2478,3.2493,3.2554,3.2572,3.2585,3.2598,3.2577,3.266,3.2668,3.2675,3.2702,3.2713,3.2588,3.2588,3.2587,3.2587,0,3.2317,3.2352,3.2383,3.2415,3.2437,3.2477,3.2483,3.2505,3.2502,3.2509,3.2559,3.2577,3.2611,3.2625,3.2621,3.2686,3.2676,3.266,3.2629,3.2688,3.2714,3.2724,3.2591,3.2591,3.259,3.2589,0,0,3.2401,3.2434,3.2445,3.2461,3.2487,3.2515,3.2555,3.2589,3.2609,3.2632,3.2667,3.2714,3.27,3.2719,3.2717,3.2747,3.2807,3.2727,3.2727,3.2742,3.2881,3.2894,3.2906,3.28,3.2802,3.2804,3.288,0,3.247,3.2541,3.2541,3.2607,3.264,3.2628,3.2663,3.2684,3.2692,3.2722,3.2731,3.2765,3.2743,3.2754,3.2783,3.2794,3.2835,3.2788,3.2834,3.2835,3.2829,3.2919,3.2932,3.3003,3.2889,3.2891,3.2892,0,3.256,3.2587,3.2656,3.268,3.2694,3.2725,3.2757,3.2786,3.281,3.2814,3.2836,3.283,3.2873,3.2841,3.2901,3.2869,3.2887,3.2896,3.2899,3.2903,3.2868,3.2927,3.3026,3.3037,3.2908,3.2906,3.2905,0,3.2617,3.2671,3.2719,3.2733,3.2761,3.2784,3.2797,3.2819,3.2839,3.2867,3.2881,3.2914,3.2932,3.2958,3.2962,3.2938,3.3022,3.299,3.3028,3.3028,3.3046,3.3045,3.315,3.3057,3.3057,3.3057,3.3056,0,3.2694,3.2737,3.2745,3.2775,3.2824,3.2824,3.2872,3.2883,3.2903,3.2936,3.2927,3.2958,3.2962,3.2994,3.2998,3.3047,3.3055,3.3061,3.3061,3.3062,3.3061,3.3074,3.307,3.3059,3.3059,3.3058,3.3058,0,3.2766,3.2773,3.2825,3.2848,3.2855,3.289,3.291,3.2939,3.2946,3.2988,3.2998,3.301,3.3048,3.3055,3.3099,3.3102,3.3162,3.3157,3.3154,3.3154,3.3191,3.3188,3.3309,3.3325,3.322,3.3221,3.3222,0,3.2815,3.2848,3.2875,3.2896,3.291,3.2945,3.2966,3.2968,3.2991,3.3022,3.3048,3.3085,3.3115,3.3176,3.319,3.3224,3.3221,3.3261,3.3226,3.3226,3.3223,3.3221,3.3225,3.3268,3.3269,3.327,3.327,0,3.2903,3.2905,3.2936,3.2969,3.2995,3.3021,3.3045,3.3064,3.3069,3.3096,3.3134,3.3158,3.3204,3.3241,3.3276,3.329,3.3282,3.3281,3.3292,3.3293,3.3291,3.3294,3.3173,3.3279,3.3278,3.3277,3.3277,3.3276,3.2966,3.2995,3.3019,3.3054,3.3073,3.3097,3.3126,3.3138,3.317,3.3208,3.3207,3.325,3.3275,3.3321,3.3338,3.3372,3.3359,3.3374,3.3378,3.3382,3.3387,3.3285,3.3378,3.3378,3.3378,3.3377,3.3377,0,3.3054,3.3069,3.3101,3.3136,3.3165,3.3154,3.3182,3.3206,3.3244,3.3268,3.3298,3.3343,3.338,3.3397,3.3433,3.3458,3.3455,3.3467,3.3466,3.347,3.3395,3.3383,3.3469,3.3469,3.3469,3.3469,3.3469,3.3469,3.3103,3.3153,3.3158,3.3218,3.3232,3.3274,3.3291,3.3313,3.3333,3.3384,3.3414,3.3425,3.3447,3.3485,3.3519,3.3523,3.3537,3.3551,3.3554,3.3484,3.3475,3.3466,3.3454,3.3554,3.3554,3.3626,3.3627,3.3627]},{"header":{"parameterUnit":"m.s-1","parameterCategory":1,"la1":30.2991,"la2":30.254,"lo1":-89.0895,"lo2":-89.0444,"dx":0.0017,"dy":0.0017,"nx":28,"ny":28,"refTime":"2022-12-15T09:00:00:Z","depth":0,"parameterNumber":3,"parameterNumberName":"V-component_of_WINDS"},"data":[0,0,0,0,0,0,0,0,0,0,0,0,0,0,0,0,0,0,0,0,0,0,0,0,0,0,0,0,0,0,0,0,0,0,0,0,0,0,0,0,0,0,0,0,0,0,0,0,0,0,0,0,0,0,0,0,0,0,-2.6391,-2.6392,0,-2.6456,-2.6456,-2.6457,-2.6471,-2.647,-2.647,-2.6469,-2.6534,-2.6536,-2.6538,0,0,0,0,0,0,0,0,0,0,0,0,0,-2.6281,-2.6282,-2.6391,-2.6392,-2.6393,-2.6456,-2.6456,-2.6457,-2.6471,-2.647,-2.647,-2.6469,-2.6533,-2.6535,-2.6538,0,0,0,0,0,0,0,0,0,0,0,0,0,-2.6335,-2.6283,-2.6391,-2.6407,-2.6409,-2.6455,-2.6456,-2.6458,-2.6471,-2.647,-2.6469,-2.6469,-2.6532,-2.6535,-2.6538,-2.6572,0,0,-2.6548,-2.655,0,0,0,0,0,0,0,0,-2.6332,-2.6339,-2.6404,-2.6406,-2.6409,-2.6455,-2.6441,-2.6496,-2.6471,-2.6448,-2.6469,-2.6468,-2.6508,-2.6513,-2.6527,-2.6575,-2.6578,-2.6549,-2.6551,-2.6552,-2.6553,0,0,0,0,0,0,0,-2.6328,-2.6336,-2.6417,-2.6405,-2.6408,-2.6411,-2.6418,-2.6451,-2.6481,-2.645,-2.6451,-2.6458,-2.6509,-2.6523,-2.6528,-2.6579,-2.6548,-2.6551,-2.6553,-2.6555,-2.6661,-2.6662,0,0,0,0,0,0,-2.6322,-2.6333,-2.6415,-2.6419,-2.6368,-2.6414,-2.6422,-2.644,-2.648,-2.6486,-2.6459,-2.6459,-2.6518,-2.6524,-2.653,-2.6574,-2.6552,-2.6555,-2.6557,-2.666,-2.6662,-2.6662,0,0,0,0,0,0,-2.6319,-2.6329,-2.6412,-2.6376,-2.6387,-2.6417,-2.6438,-2.6442,-2.6457,-2.6487,-2.6493,-2.6468,-2.6518,-2.6526,-2.6562,-2.6576,-2.6556,-2.6559,-2.6659,-2.6661,-2.6662,-2.6661,0,0,0,0,0,0,-2.6316,-2.6328,-2.6341,-2.6377,-2.6389,-2.6443,-2.6438,-2.6444,-2.6462,-2.6463,-2.6498,-2.6503,-2.6518,-2.6558,-2.6566,-2.6581,-2.6562,-2.6658,-2.666,-2.6662,-2.666,-2.6662,-2.6664,0,0,0,0,0,-2.6312,-2.6337,-2.6341,-2.6351,-2.6406,-2.6444,-2.6451,-2.6468,-2.6463,-2.6477,-2.6497,-2.6502,-2.6574,-2.6561,-2.657,-2.6586,-2.6657,-2.6659,-2.6661,-2.6659,-2.6662,-2.6664,0,0,0,0,0,0,-2.6301,-2.6342,-2.6347,-2.6385,-2.6411,-2.6446,-2.6464,-2.647,-2.6498,-2.6497,-2.6517,-2.6525,-2.6561,-2.6577,-2.6563,-2.6623,-2.6615,-2.6619,-2.661,-2.6613,-2.6615,-2.661,-2.6564,0,0,0,0,0,-2.6304,-2.6331,-2.6365,-2.6395,-2.6408,-2.6434,-2.6451,-2.6462,-2.649,-2.65,-2.6523,-2.6549,-2.6578,-2.6597,-2.6625,-2.6663,-2.6671,-2.6678,-2.668,-2.6682,-2.6685,-2.6708,-2.6712,-2.6669,-2.6669,-2.6669,0,0,-2.6308,-2.6334,-2.635,-2.6394,-2.6415,-2.6444,-2.6443,-2.6472,-2.6493,-2.6505,-2.6541,-2.6559,-2.659,-2.6627,-2.6645,-2.6642,-2.6699,-2.6685,-2.6686,-2.6688,-2.671,-2.6714,-2.6718,-2.667,-2.667,-2.667,0,0,-2.6331,-2.6353,-2.6381,-2.6403,-2.6436,-2.6453,-2.646,-2.6495,-2.6507,-2.6544,-2.6554,-2.658,-2.6628,-2.6651,-2.6668,-2.6702,-2.6707,-2.671,-2.6721,-2.6743,-2.6746,-2.6749,-2.6762,-2.6766,-2.6713,-2.6713,-2.6713,0,-2.6332,-2.6376,-2.6395,-2.6424,-2.6444,-2.6457,-2.6486,-2.6506,-2.6546,-2.6559,-2.6556,-2.6619,-2.664,-2.6684,-2.6693,-2.6706,-2.6715,-2.6706,-2.6744,-2.6748,-2.6751,-2.6763,-2.6768,-2.6713,-2.6713,-2.6713,-2.6713,0,-2.6376,-2.6406,-2.6425,-2.6464,-2.6486,-2.6515,-2.6539,-2.6559,-2.6569,-2.6586,-2.6625,-2.6651,-2.6686,-2.6697,-2.6706,-2.6743,-2.674,-2.674,-2.6733,-2.6755,-2.6767,-2.6772,-2.6714,-2.6714,-2.6714,-2.6714,0,0,-2.6393,-2.6444,-2.6451,-2.647,-2.6508,-2.6532,-2.6562,-2.6596,-2.6613,-2.6641,-2.6667,-2.6709,-2.671,-2.673,-2.6743,-2.6762,-2.6788,-2.676,-2.6761,-2.6765,-2.6831,-2.6831,-2.6836,-2.6792,-2.6793,-2.6794,-2.6829,0,-2.6421,-2.6475,-2.6494,-2.654,-2.6568,-2.6582,-2.6608,-2.6635,-2.6653,-2.668,-2.6699,-2.6729,-2.6727,-2.674,-2.676,-2.6781,-2.6802,-2.6779,-2.6817,-2.6818,-2.6809,-2.6842,-2.6842,-2.6873,-2.6834,-2.6834,-2.6835,0,-2.646,-2.649,-2.6538,-2.6575,-2.6587,-2.6611,-2.6645,-2.667,-2.6701,-2.6713,-2.6736,-2.6748,-2.6781,-2.6772,-2.6818,-2.6802,-2.6819,-2.6832,-2.6834,-2.6838,-2.6828,-2.6848,-2.6884,-2.6889,-2.6842,-2.6842,-2.6841,0,-2.6469,-2.6521,-2.6557,-2.6572,-2.6616,-2.6632,-2.6651,-2.6681,-2.6701,-2.6731,-2.6745,-2.6777,-2.6795,-2.6821,-2.6841,-2.6833,-2.6886,-2.6879,-2.6897,-2.6896,-2.6907,-2.6906,-2.6946,-2.6917,-2.6917,-2.6917,-2.6917,0,-2.6498,-2.6527,-2.6561,-2.6583,-2.6617,-2.6639,-2.6672,-2.6691,-2.6718,-2.6745,-2.6759,-2.6783,-2.6809,-2.6837,-2.6853,-2.6889,-2.6897,-2.6907,-2.6911,-2.6906,-2.6905,-2.6918,-2.6916,-2.6919,-2.6918,-2.6918,-2.6918,0,-2.6512,-2.6536,-2.6577,-2.6615,-2.6626,-2.6649,-2.6682,-2.6704,-2.6723,-2.6757,-2.6766,-2.6796,-2.683,-2.6853,-2.6896,-2.6907,-2.6946,-2.695,-2.6936,-2.6938,-2.6955,-2.6954,-2.7005,-2.7014,-2.6979,-2.6979,-2.6979,0,-2.6529,-2.6553,-2.6594,-2.6613,-2.6632,-2.6663,-2.6684,-2.6707,-2.6728,-2.6767,-2.6785,-2.682,-2.6849,-2.6903,-2.6928,-2.6962,-2.6967,-2.6983,-2.6972,-2.6966,-2.6968,-2.6966,-2.6969,-2.6984,-2.6984,-2.6984,-2.6985,0,-2.6558,-2.6569,-2.6599,-2.6634,-2.6659,-2.6688,-2.6716,-2.6731,-2.6759,-2.6783,-2.6818,-2.6841,-2.6886,-2.6921,-2.6958,-2.6977,-2.6986,-2.6988,-2.6994,-2.6989,-2.6981,-2.6987,-2.6941,-2.6987,-2.6986,-2.6986,-2.6986,-2.6986,-2.6575,-2.6596,-2.663,-2.6663,-2.6687,-2.6714,-2.6738,-2.676,-2.6791,-2.683,-2.6841,-2.6879,-2.6911,-2.6961,-2.6981,-2.701,-2.7009,-2.7017,-2.702,-2.7022,-2.7022,-2.6976,-2.7017,-2.7017,-2.7017,-2.7017,-2.7017,0,-2.6604,-2.6627,-2.6657,-2.6698,-2.6724,-2.6731,-2.6764,-2.6786,-2.6818,-2.6848,-2.6877,-2.6919,-2.6953,-2.6982,-2.7018,-2.7036,-2.7041,-2.7045,-2.7044,-2.7049,-2.7021,-2.7012,-2.704,-2.704,-2.704,-2.704,-2.704,-2.704,-2.6623,-2.666,-2.6676,-2.6726,-2.6748,-2.6786,-2.6804,-2.6829,-2.6853,-2.6899,-2.6928,-2.6947,-2.6977,-2.7015,-2.7047,-2.7055,-2.7068,-2.7071,-2.708,-2.7053,-2.705,-2.7048,-2.704,-2.7073,-2.7073,-2.7105,-2.7105,-2.7105]}]]